When you browse on this site, cookies collect data to enhance your experience and personalize the content and advertising you see.
Visit our Privacy Policy to learn more. By continuing to use the site, you agree to this use of cookies and data.
  • In Hungary
  • List of Countries
  • For 7 days
  • Water Temperature
  • Weather Map
  • News
  • Weather Widgets
  • user-avatar
    Login

    Hourly Weather Waterloo

    Today, 15 November, Friday

    Time Temperature Precipitation Wind Pressure Humidity
    00:00 -8°C° 0 mm 3 mps 744 mmHg 88%
    01:00 -8°C° 0 mm 3 mps 744 mmHg 88%
    02:00 -7°C° 0 mm 3 mps 744 mmHg 88%
    03:00 -6°C° 0 mm 2 mps 744 mmHg 89%
    04:00 -6°C° 0 mm 2 mps 744 mmHg 89%
    05:00 -6°C° 0 mm 2 mps 744 mmHg 90%
    06:00 -5°C° 0 mm 2 mps 744 mmHg 90%
    07:00 -4°C° 0 mm 2 mps 744 mmHg 89%
    08:00 -1°C° 0 mm 1 mps 745 mmHg 88%
    09:00 0°C° 0 mm 1 mps 745 mmHg 87%
    10:00 +1°C° 0 mm 1 mps 745 mmHg 86%
    11:00 +2°C° 0 mm 1 mps 745 mmHg 86%
    12:00 +3°C° 0 mm 1 mps 745 mmHg 86%
    13:00 +3°C° 0 mm 1 mps 745 mmHg 88%
    14:00 +3°C° 0 mm 1 mps 744 mmHg 90%
    15:00 +2°C° 0 mm 2 mps 744 mmHg 92%
    16:00 +1°C° 0 mm 2 mps 744 mmHg 93%
    17:00 -1°C° 0 mm 2 mps 744 mmHg 94%
    18:00 -3°C° 0 mm 2 mps 744 mmHg 95%
    19:00 -3°C° 0 mm 2 mps 744 mmHg 95%
    20:00 -4°C° 0 mm 3 mps 744 mmHg 95%
    21:00 -4°C° 0 mm 3 mps 744 mmHg 95%
    22:00 -4°C° 0 mm 3 mps 744 mmHg 96%
    23:00 -4°C° 0 mm 4 mps 744 mmHg 96%

    Tomorrow, 16 November, Saturday

    Time Temperature Precipitation Wind Pressure Humidity
    00:00 -4°C° 0 mm 4 mps 744 mmHg 96%
    01:00 -4°C° 0 mm 4 mps 744 mmHg 96%
    02:00 -4°C° 0 mm 4 mps 744 mmHg 96%
    03:00 -4°C° 0 mm 4 mps 744 mmHg 96%
    04:00 -5°C° 0 mm 5 mps 743 mmHg 96%
    05:00 -5°C° 0 mm 5 mps 743 mmHg 96%
    06:00 -5°C° 0 mm 5 mps 743 mmHg 96%
    07:00 -5°C° 0 mm 6 mps 743 mmHg 94%
    08:00 -4°C° 0 mm 6 mps 743 mmHg 93%
    09:00 -4°C° 0 mm 6 mps 743 mmHg 92%
    10:00 -3°C° 0 mm 6 mps 742 mmHg 91%
    11:00 -2°C° 0 mm 6 mps 741 mmHg 90%
    12:00 -1°C° 0 mm 7 mps 741 mmHg 89%
    13:00 -1°C° 0 mm 6 mps 740 mmHg 88%
    14:00 -1°C° 0 mm 6 mps 739 mmHg 87%
    15:00 -1°C° 0 mm 6 mps 739 mmHg 87%
    16:00 -1°C° 0 mm 6 mps 738 mmHg 88%
    17:00 -2°C° 0 mm 6 mps 738 mmHg 89%
    18:00 -1°C° 0 mm 5 mps 738 mmHg 89%
    19:00 -1°C° 0 mm 5 mps 738 mmHg 90%
    20:00 -3°C° 0 mm 6 mps 738 mmHg 91%
    21:00 -3°C° 0 mm 6 mps 738 mmHg 92%
    22:00 -3°C° 0 mm 6 mps 737 mmHg 92%
    23:00 -3°C° 0 mm 6 mps 736 mmHg 91%

    Day after tomorrow, 17 November, Sunday

    Time Temperature Precipitation Wind Pressure Humidity
    00:00 -3°C° 0 mm 6 mps 736 mmHg 91%
    01:00 -3°C° 0.1 mm 6 mps 735 mmHg 91%
    02:00 -2°C° 0.1 mm 5 mps 735 mmHg 92%
    03:00 -2°C° 0.1 mm 5 mps 734 mmHg 92%
    04:00 -2°C° 0.2 mm 4 mps 734 mmHg 93%
    05:00 -1°C° 0.2 mm 4 mps 733 mmHg 95%
    06:00 -1°C° 0.2 mm 4 mps 733 mmHg 96%
    07:00 0°C° 0 mm 3 mps 733 mmHg 96%
    08:00 +1°C° 0 mm 3 mps 733 mmHg 95%
    09:00 +2°C° 0 mm 3 mps 733 mmHg 95%
    10:00 +1°C° 0 mm 4 mps 733 mmHg 94%
    11:00 +1°C° 0 mm 4 mps 732 mmHg 93%
    12:00 +1°C° 0 mm 5 mps 732 mmHg 93%
    13:00 +1°C° 0.1 mm 5 mps 732 mmHg 92%
    14:00 +1°C° 0.1 mm 5 mps 732 mmHg 92%
    15:00 +1°C° 0.1 mm 5 mps 732 mmHg 91%
    16:00 0°C° 0 mm 4 mps 732 mmHg 91%
    17:00 0°C° 0 mm 3 mps 732 mmHg 92%
    18:00 0°C° 0 mm 3 mps 732 mmHg 92%
    19:00 0°C° 0 mm 3 mps 732 mmHg 92%
    20:00 -1°C° 0 mm 2 mps 732 mmHg 91%
    21:00 -1°C° 0 mm 2 mps 732 mmHg 91%
    22:00 -1°C° 0 mm 2 mps 732 mmHg 91%
    23:00 -1°C° 0 mm 2 mps 731 mmHg 91%

    18 November, Monday

    Time Temperature Precipitation Wind Pressure Humidity
    00:00 -1°C° 0 mm 2 mps 731 mmHg 91%
    01:00 -1°C° 0 mm 2 mps 731 mmHg 92%
    02:00 -2°C° 0 mm 2 mps 731 mmHg 92%
    03:00 -2°C° 0 mm 2 mps 731 mmHg 92%
    04:00 -2°C° 0 mm 2 mps 731 mmHg 92%
    05:00 -2°C° 0 mm 2 mps 731 mmHg 93%
    06:00 0°C° 0 mm 1 mps 731 mmHg 93%
    07:00 +1°C° 0 mm 1 mps 731 mmHg 90%
    08:00 +2°C° 0 mm 1 mps 731 mmHg 88%
    09:00 +3°C° 0 mm 1 mps 731 mmHg 86%
    10:00 +4°C° 0 mm 1 mps 731 mmHg 83%
    11:00 +5°C° 0 mm 1 mps 731 mmHg 79%
    12:00 +5°C° 0 mm 2 mps 730 mmHg 76%
    13:00 +5°C° 0 mm 2 mps 730 mmHg 78%
    14:00 +5°C° 0 mm 2 mps 730 mmHg 79%
    15:00 +6°C° 0 mm 2 mps 730 mmHg 80%
    16:00 +5°C° 0 mm 2 mps 730 mmHg 84%
    17:00 +4°C° 0 mm 2 mps 731 mmHg 88%
    18:00 +3°C° 0 mm 2 mps 731 mmHg 91%
    19:00 +3°C° 0 mm 2 mps 731 mmHg 92%
    20:00 +3°C° 0 mm 2 mps 731 mmHg 92%
    21:00 +2°C° 0 mm 2 mps 732 mmHg 93%
    22:00 +3°C° 0 mm 2 mps 732 mmHg 94%
    23:00 +3°C° 0 mm 2 mps 732 mmHg 94%

    19 November, Tuesday

    Time Temperature Precipitation Wind Pressure Humidity
    00:00 +3°C° 0 mm 2 mps 732 mmHg 95%
    01:00 +2°C° 0 mm 2 mps 732 mmHg 95%
    02:00 +2°C° 0 mm 2 mps 732 mmHg 95%
    03:00 +1°C° 0 mm 2 mps 732 mmHg 95%
    04:00 +1°C° 0 mm 2 mps 732 mmHg 95%
    05:00 +1°C° 0 mm 2 mps 732 mmHg 95%
    06:00 -1°C° 0 mm 2 mps 732 mmHg 95%
    07:00 +1°C° 0 mm 3 mps 732 mmHg 92%
    08:00 +2°C° 0 mm 3 mps 732 mmHg 90%
    09:00 +3°C° 0 mm 3 mps 733 mmHg 87%
    10:00 +4°C° 0 mm 4 mps 732 mmHg 84%
    11:00 +5°C° 0 mm 4 mps 732 mmHg 80%
    12:00 +7°C° 0 mm 5 mps 732 mmHg 76%
    13:00 +7°C° 0 mm 5 mps 732 mmHg 74%
    14:00 +7°C° 0 mm 5 mps 732 mmHg 71%
    15:00 +7°C° 0 mm 5 mps 732 mmHg 69%
    16:00 +6°C° 0 mm 5 mps 733 mmHg 73%
    17:00 +4°C° 0 mm 4 mps 733 mmHg 76%
    18:00 +3°C° 0 mm 3 mps 734 mmHg 80%
    19:00 +2°C° 0 mm 3 mps 735 mmHg 84%
    20:00 +1°C° 0 mm 3 mps 735 mmHg 87%
    21:00 +2°C° 0 mm 2 mps 736 mmHg 91%
    22:00 +2°C° 0 mm 2 mps 736 mmHg 90%
    23:00 +2°C° 0 mm 2 mps 737 mmHg 90%

    20 November, Wednesday

    Time Temperature Precipitation Wind Pressure Humidity
    00:00 +3°C° 0 mm 1 mps 737 mmHg 89%
    01:00 +3°C° 0 mm 1 mps 738 mmHg 90%
    02:00 +3°C° 0 mm 1 mps 738 mmHg 90%
    03:00 +3°C° 0 mm 1 mps 738 mmHg 90%
    04:00 +2°C° 0 mm 1 mps 738 mmHg 91%
    05:00 +2°C° 0 mm 1 mps 739 mmHg 92%
    06:00 +1°C° 0 mm 1 mps 739 mmHg 93%
    07:00 +2°C° 0 mm 1 mps 739 mmHg 91%
    08:00 +2°C° 0 mm 2 mps 740 mmHg 89%
    09:00 +3°C° 0 mm 2 mps 740 mmHg 86%
    10:00 +4°C° 0 mm 2 mps 740 mmHg 81%
    11:00 +5°C° 0 mm 2 mps 740 mmHg 77%
    12:00 +5°C° 0 mm 3 mps 740 mmHg 72%
    13:00 +5°C° 0 mm 3 mps 740 mmHg 72%
    14:00 +5°C° 0 mm 3 mps 740 mmHg 73%
    15:00 +5°C° 0 mm 3 mps 740 mmHg 73%
    16:00 +4°C° 0 mm 3 mps 740 mmHg 78%
    17:00 +3°C° 0 mm 3 mps 740 mmHg 84%
    18:00 +2°C° 0 mm 3 mps 739 mmHg 89%
    19:00 +2°C° 0 mm 3 mps 739 mmHg 88%
    20:00 +1°C° 0 mm 4 mps 739 mmHg 86%
    21:00 +1°C° 0 mm 4 mps 739 mmHg 85%
    22:00 +1°C° 0 mm 4 mps 739 mmHg 86%
    23:00 +1°C° 0 mm 4 mps 738 mmHg 86%
    Show more